SWA2189 KSAN-KMSY

Flight info

Callsign SWA2189
Flight time N/A
Altitude 35000
Route ZZOOO4 TGOLD PXR ONM CNX DUMPS HNKER CVE AEX LSU AWDAD1
Aircraft B738/M-SDE2E3FGHIRWXY/LB1

Departure

Time 2026-05-04 19:59
Airport San Diego International Airport (KSAN)

Arrival

Time N/A
Airport Louis Armstrong New Orleans International Airport (KMSY)
Time Latitude Longitude Altitude Speed Heading
2026-05-04 19:34 32.73422 -117.20186 22 ft 0 kts 169°
2026-05-04 19:46 32.73423 -117.20186 22 ft 2 kts 169°
2026-05-04 19:46 32.73431 -117.20188 22 ft 0 kts 161°
2026-05-04 19:47 32.73439 -117.20192 23 ft 3 kts 154°
2026-05-04 19:47 32.73447 -117.20197 22 ft 0 kts 143°
2026-05-04 19:47 32.73453 -117.20203 24 ft 2 kts 129°
2026-05-04 19:47 32.73457 -117.20210 24 ft 2 kts 111°
2026-05-04 19:48 32.73459 -117.20219 25 ft 2 kts 92°
2026-05-04 19:48 32.73459 -117.20228 25 ft 2 kts 74°
2026-05-04 19:48 32.73456 -117.20237 25 ft 2 kts 58°
2026-05-04 19:48 32.73452 -117.20243 27 ft 2 kts 47°
2026-05-04 19:49 32.73448 -117.20248 23 ft 0 kts 39°
2026-05-04 19:49 32.73445 -117.20252 25 ft 0 kts 34°
2026-05-04 19:49 32.73441 -117.20254 26 ft 1 kts 30°
2026-05-04 19:49 32.73438 -117.20257 26 ft 0 kts 26°
2026-05-04 19:50 32.73434 -117.20259 26 ft 1 kts 22°
2026-05-04 19:50 32.73430 -117.20261 23 ft 1 kts 19°
2026-05-04 19:50 32.73427 -117.20262 23 ft 0 kts 17°
2026-05-04 19:51 32.73469 -117.20253 24 ft 16 kts 11°
2026-05-04 19:52 32.73550 -117.20161 22 ft 19 kts 101°
2026-05-04 19:52 32.73508 -117.20019 22 ft 18 kts 107°
2026-05-04 19:52 32.73473 -117.19878 24 ft 18 kts 106°
2026-05-04 19:52 32.73440 -117.19741 23 ft 17 kts 107°
2026-05-04 19:53 32.73408 -117.19610 22 ft 16 kts 105°
2026-05-04 19:53 32.73372 -117.19459 24 ft 23 kts 106°
2026-05-04 19:53 32.73323 -117.19258 21 ft 29 kts 106°
2026-05-04 19:53 32.73249 -117.18955 22 ft 39 kts 106°
2026-05-04 19:54 32.73177 -117.18654 22 ft 37 kts 105°
2026-05-04 19:54 32.73110 -117.18373 23 ft 34 kts 105°
2026-05-04 19:54 32.73047 -117.18115 21 ft 31 kts 107°
2026-05-04 19:54 32.72988 -117.17881 21 ft 29 kts 106°
2026-05-04 19:55 32.72950 -117.17698 21 ft 16 kts 85°
2026-05-04 19:55 32.72956 -117.17668 21 ft 0 kts 71°
2026-05-04 19:56 32.72959 -117.17660 23 ft 13 kts 71°
2026-05-04 19:57 32.73023 -117.17604 23 ft 6 kts 320°
2026-05-04 19:57 32.73033 -117.17630 21 ft 0 kts 289°
2026-05-04 19:58 32.73033 -117.17631 21 ft 2 kts 289°
2026-05-04 19:59 32.73069 -117.17776 21 ft 56 kts 286°
2026-05-04 19:59 32.73348 -117.18912 28 ft 155 kts 287°
2026-05-04 19:59 32.73671 -117.20144 980 ft 147 kts 289°
2026-05-04 19:59 32.74035 -117.21351 1903 ft 162 kts 288°
2026-05-04 20:00 32.74364 -117.22622 2930 ft 161 kts 283°
2026-05-04 20:00 32.74637 -117.23905 3898 ft 160 kts 283°
2026-05-04 20:00 32.74913 -117.25164 4757 ft 154 kts 285°
2026-05-04 20:00 32.75109 -117.26025 4941 ft 175 kts 285°
2026-05-04 20:01 32.75467 -117.27570 4953 ft 211 kts 286°
2026-05-04 20:01 32.75887 -117.29356 5159 ft 235 kts 286°
2026-05-04 20:01 32.76350 -117.31310 5479 ft 256 kts 285°
2026-05-04 20:01 32.76478 -117.33420 5715 ft 261 kts 260°
2026-05-04 20:02 32.75773 -117.35404 5942 ft 265 kts 236°